| time (UTC) | temp C | wind direction | speed KPH | gust KPH | rain 1hr cm | rain 24hr cm | rain mn cm | humidity % | barometer mb |
| 20260904040542 | 17 | 298 | 0.0 | 0.0 | 0.00 | 0.00 | 0.00 | 91 | 1010.9 |
| 20260904040039 | 17 | 299 | 0.0 | 0.0 | 0.00 | 0.00 | 0.00 | 91 | 1010.9 |
| 20260904035540 | 17 | 299 | 0.0 | 0.0 | 0.00 | 0.10 | 0.00 | 91 | 1010.9 |
| 20260904035039 | 17 | 299 | 0.0 | 0.0 | 0.00 | 0.10 | 0.00 | 91 | 1011.0 |
| 20260904034544 | 17 | 299 | 0.0 | 0.0 | 0.00 | 0.10 | 0.00 | 91 | 1011.0 |
| 20260904034038 | 17 | 299 | 0.0 | 0.0 | 0.00 | 0.10 | 0.00 | 91 | 1011.0 |
| 20260904033538 | 17 | 299 | 0.0 | 0.0 | 0.00 | 0.10 | 0.00 | 91 | 1011.0 |
| 20260904033039 | 17 | 299 | 0.0 | 0.0 | 0.00 | 0.10 | 0.00 | 91 | 1010.9 |
| 20260904032537 | 17 | 298 | 0.0 | 0.0 | 0.00 | 0.10 | 0.00 | 91 | 1011.0 |
| 20260904032037 | 17 | 298 | 0.0 | 0.0 | 0.00 | 0.10 | 0.00 | 90 | 1011.1 |
| 20260904031536 | 17 | 298 | 0.0 | 0.0 | 0.00 | 0.10 | 0.00 | 90 | 1011.2 |
| 20260904031035 | 17 | 298 | 0.0 | 0.0 | 0.00 | 0.10 | 0.00 | 91 | 1011.1 |
| 20260904030535 | 17 | 298 | 0.0 | 0.0 | 0.00 | 0.10 | 0.00 | 91 | 1011.1 |
| 20260904030035 | 17 | 298 | 0.0 | 0.0 | 0.00 | 0.10 | 0.00 | 90 | 1011.2 |
| 20260904025535 | 17 | 298 | 0.0 | 0.0 | 0.00 | 0.30 | 0.00 | 90 | 1011.2 |
| 20260904025035 | 17 | 298 | 0.0 | 0.0 | 0.00 | 0.30 | 0.00 | 90 | 1011.1 |
| 20260904024545 | 17 | 298 | 0.0 | 0.0 | 0.00 | 0.30 | 0.00 | 90 | 1011.2 |
| 20260904024035 | 17 | 298 | 0.0 | 0.0 | 0.00 | 0.30 | 0.00 | 89 | 1011.3 |
| 20260904023534 | 17 | 298 | 0.0 | 0.0 | 0.00 | 0.30 | 0.00 | 89 | 1011.2 |
| 20260904023035 | 17 | 298 | 0.0 | 0.0 | 0.00 | 0.30 | 0.00 | 89 | 1011.2 |
| 20260904022535 | 17 | 298 | 0.0 | 0.0 | 0.00 | 0.30 | 0.00 | 89 | 1011.3 |
| 20260904022034 | 17 | 298 | 0.0 | 0.0 | 0.00 | 0.30 | 0.00 | 88 | 1011.3 |
| 20260904021535 | 17 | 298 | 0.0 | 0.0 | 0.00 | 0.30 | 0.00 | 88 | 1011.4 |
| 20260904021036 | 17 | 298 | 0.0 | 0.0 | 0.00 | 0.30 | 0.00 | 87 | 1011.7 |
| 20260904020533 | 17 | 298 | 0.0 | 0.0 | 0.00 | 0.30 | 0.00 | 87 | 1011.7 |
| 20260904020033 | 17 | 298 | 0.0 | 0.0 | 0.00 | 0.30 | 0.00 | 86 | 1011.6 |
| 20260904015532 | 18 | 296 | 0.0 | 0.0 | 0.00 | 0.41 | 0.00 | 86 | 1011.6 |
| 20260904015032 | 18 | 296 | 0.0 | 0.0 | 0.00 | 0.41 | 0.00 | 86 | 1011.6 |
| 20260904014536 | 18 | 296 | 0.0 | 0.0 | 0.00 | 0.41 | 0.00 | 85 | 1011.6 |
| 20260904014034 | 18 | 296 | 0.0 | 0.0 | 0.00 | 0.41 | 0.00 | 85 | 1011.7 |
| 20260904013532 | 18 | 296 | 0.0 | 0.0 | 0.00 | 0.41 | 0.00 | 85 | 1011.6 |
| 20260904013036 | 18 | 296 | 0.0 | 0.0 | 0.00 | 0.41 | 0.00 | 85 | 1011.7 |
| 20260904012534 | 18 | 296 | 0.0 | 0.0 | 0.00 | 0.41 | 0.00 | 85 | 1011.7 |
| 20260904012032 | 18 | 296 | 0.0 | 0.0 | 0.00 | 0.41 | 0.00 | 85 | 1011.7 |
| 20260904011536 | 18 | 296 | 0.0 | 0.0 | 0.00 | 0.41 | 0.00 | 85 | 1011.5 |
| 20260904011033 | 18 | 296 | 0.0 | 0.0 | 0.00 | 0.41 | 0.00 | 86 | 1011.4 |
| 20260904010532 | 18 | 296 | 0.0 | 0.0 | 0.00 | 0.41 | 0.00 | 85 | 1011.5 |
| 20260904010039 | 18 | 296 | 0.0 | 0.0 | 0.00 | 0.41 | 0.00 | 85 | 1011.5 |
| 20260904005530 | 18 | 296 | 0.0 | 0.0 | 0.00 | 0.41 | 0.00 | 85 | 1011.4 |
| 20260904005030 | 18 | 296 | 0.0 | 0.0 | 0.00 | 0.41 | 0.00 | 84 | 1011.5 |
| 20260904004530 | 18 | 296 | 0.0 | 0.0 | 0.00 | 0.41 | 0.00 | 84 | 1011.4 |
| 20260904004030 | 18 | 296 | 0.0 | 0.0 | 0.00 | 0.41 | 0.00 | 83 | 1011.3 |
| 20260904003530 | 18 | 296 | 0.0 | 0.0 | 0.00 | 0.41 | 0.00 | 83 | 1011.3 |
| 20260904003033 | 18 | 296 | 0.0 | 0.0 | 0.00 | 0.41 | 0.00 | 81 | 1011.2 |
| 20260904002529 | 18 | 296 | 0.0 | 0.0 | 0.00 | 0.41 | 0.00 | 82 | 1011.1 |
| 20260904002030 | 18 | 296 | 0.0 | 0.0 | 0.00 | 0.41 | 0.00 | 83 | 1011.2 |
| 20260904001533 | 18 | 296 | 0.0 | 0.0 | 0.00 | 0.41 | 0.00 | 82 | 1011.1 |
| 20260904001028 | 18 | 296 | 0.0 | 0.0 | 0.00 | 0.41 | 0.00 | 80 | 1011.2 |
| 20260904000529 | 18 | 296 | 0.0 | 0.0 | 0.00 | 0.41 | 0.00 | 80 | 1011.1 |
| 20260904000029 | 18 | 296 | 0.0 | 0.0 | 0.00 | 0.41 | 0.00 | 80 | 1011.3 |
| 20260903235528 | 19 | 296 | 0.0 | 0.0 | 0.00 | 0.41 | 0.00 | 78 | 1011.2 |
| 20260903235028 | 19 | 296 | 0.0 | 0.0 | 0.00 | 0.41 | 0.00 | 78 | 1011.1 |
| 20260903234528 | 19 | 296 | 0.0 | 0.0 | 0.00 | 0.41 | 0.00 | 79 | 1011.1 |
| 20260903234028 | 19 | 296 | 0.0 | 0.0 | 0.00 | 0.41 | 0.00 | 79 | 1011.1 |
| 20260903233528 | 19 | 296 | 0.0 | 0.0 | 0.00 | 0.41 | 0.00 | 79 | 1011.1 |
| 20260903233029 | 20 | 296 | 0.0 | 0.0 | 0.00 | 0.41 | 0.00 | 79 | 1010.9 |
| 20260903232527 | 20 | 296 | 0.0 | 0.0 | 0.00 | 0.41 | 0.00 | 77 | 1010.9 |
| 20260903232028 | 20 | 297 | 0.0 | 0.0 | 0.00 | 0.41 | 0.00 | 76 | 1011.2 |
| 20260903231533 | 20 | 297 | 0.0 | 0.0 | 0.00 | 0.41 | 0.00 | 77 | 1011.1 |
| 20260903231026 | 20 | 297 | 0.0 | 0.0 | 0.00 | 0.41 | 0.00 | 77 | 1010.9 |
| 20260903230528 | 21 | 297 | 0.0 | 0.0 | 0.00 | 0.41 | 0.00 | 77 | 1011.0 |
| 20260903230032 | 21 | 297 | 0.0 | 0.0 | 0.00 | 0.41 | 0.00 | 76 | 1011.0 |
| 20260903225528 | 21 | 297 | 0.0 | 0.0 | 0.00 | 0.41 | 0.00 | 77 | 1010.9 |
| 20260903225027 | 21 | 297 | 0.0 | 0.0 | 0.00 | 0.41 | 0.00 | 74 | 1010.8 |
| 20260903224547 | 21 | 297 | 0.0 | 0.0 | 0.00 | 0.41 | 0.00 | 75 | 1011.0 |
| 20260903224026 | 22 | 297 | 0.0 | 0.0 | 0.00 | 0.41 | 0.00 | 76 | 1011.0 |
| 20260903223526 | 22 | 297 | 0.0 | 0.0 | 0.00 | 0.41 | 0.00 | 75 | 1011.1 |
| 20260903223027 | 22 | 297 | 0.0 | 0.0 | 0.00 | 0.41 | 0.00 | 71 | 1011.0 |
| 20260903222528 | 22 | 297 | 0.0 | 0.0 | 0.00 | 0.41 | 0.00 | 71 | 1011.0 |
| 20260903222026 | 22 | 297 | 0.0 | 0.0 | 0.00 | 0.41 | 0.00 | 70 | 1010.9 |
| 20260903221532 | 22 | 297 | 0.0 | 0.0 | 0.00 | 0.41 | 0.00 | 69 | 1010.9 |
| 20260903221024 | 22 | 297 | 0.0 | 0.0 | 0.00 | 0.41 | 0.00 | 66 | 1010.9 |
| 20260903220528 | 22 | 297 | 0.0 | 0.0 | 0.00 | 0.41 | 0.00 | 67 | 1010.9 |
| 20260903220025 | 23 | 297 | 0.0 | 1.6 | 0.00 | 0.41 | 0.00 | 63 | 1010.9 |
| 20260903215524 | 23 | 298 | 0.0 | 9.7 | 0.00 | 0.41 | 0.00 | 59 | 1010.9 |
| 20260903215025 | 23 | 298 | 1.6 | 9.7 | 0.00 | 0.41 | 0.00 | 58 | 1010.9 |
| 20260903214536 | 23 | 303 | 3.2 | 11.3 | 0.00 | 0.41 | 0.00 | 58 | 1010.9 |
| 20260903214024 | 23 | 309 | 4.8 | 16.1 | 0.00 | 0.41 | 0.00 | 57 | 1010.9 |
| 20260903213525 | 23 | 290 | 6.4 | 16.1 | 0.00 | 0.41 | 0.00 | 56 | 1010.9 |
| 20260903213028 | 23 | 299 | 4.8 | 16.1 | 0.00 | 0.41 | 0.00 | 55 | 1010.9 |
| 20260903212526 | 23 | 325 | 8.0 | 16.1 | 0.00 | 0.41 | 0.00 | 54 | 1010.9 |
| 20260903212023 | 23 | 344 | 8.0 | 16.1 | 0.00 | 0.41 | 0.00 | 55 | 1011.0 |
| 20260903211521 | 23 | 304 | 8.0 | 14.5 | 0.00 | 0.41 | 0.00 | 55 | 1011.1 |
| 20260903211021 | 23 | 309 | 8.0 | 14.5 | 0.00 | 0.41 | 0.00 | 57 | 1011.2 |
| 20260903210522 | 23 | 310 | 4.8 | 14.5 | 0.00 | 0.41 | 0.00 | 59 | 1011.1 |
| 20260903210022 | 23 | 288 | 4.8 | 16.1 | 0.00 | 0.41 | 0.00 | 58 | 1011.1 |
| 20260903205521 | 23 | 300 | 4.8 | 16.1 | 0.00 | 0.41 | 0.00 | 56 | 1011.1 |
| 20260903205021 | 23 | 309 | 6.4 | 20.9 | 0.00 | 0.41 | 0.00 | 56 | 1011.1 |
| 20260903204522 | 24 | 281 | 6.4 | 27.4 | 0.00 | 0.41 | 0.00 | 55 | 1011.2 |
| 20260903204021 | 24 | 292 | 14.5 | 29.0 | 0.00 | 0.41 | 0.00 | 54 | 1011.2 |
| 20260903203520 | 25 | 269 | 11.3 | 19.3 | 0.00 | 0.41 | 0.00 | 56 | 1011.2 |
| 20260903203019 | 24 | 307 | 4.8 | 14.5 | 0.00 | 0.41 | 0.00 | 57 | 1011.3 |
| 20260903202519 | 24 | 277 | 6.4 | 19.3 | 0.00 | 0.41 | 0.00 | 57 | 1011.2 |
| 20260903202019 | 24 | 311 | 4.8 | 19.3 | 0.00 | 0.41 | 0.00 | 56 | 1011.2 |
| 20260903201518 | 24 | 296 | 8.0 | 16.1 | 0.00 | 0.41 | 0.00 | 56 | 1011.1 |
| 20260903201020 | 24 | 315 | 6.4 | 14.5 | 0.00 | 0.41 | 0.00 | 58 | 1011.0 |
| 20260903200517 | 24 | 284 | 8.0 | 17.7 | 0.00 | 0.41 | 0.00 | 57 | 1011.2 |
| 20260903200018 | 24 | 308 | 6.4 | 22.5 | 0.00 | 0.41 | 0.00 | 56 | 1011.2 |
| 20260903195517 | 24 | 303 | 11.3 | 22.5 | 0.00 | 0.41 | 0.00 | 57 | 1011.2 |
| 20260903195016 | 24 | 275 | 9.7 | 19.3 | 0.00 | 0.41 | 0.00 | 58 | 1011.2 |
| 20260903194516 | 24 | 312 | 8.0 | 24.1 | 0.00 | 0.41 | 0.00 | 57 | 1011.3 |
| 20260903194015 | 24 | 297 | 11.3 | 24.1 | 0.00 | 0.41 | 0.00 | 55 | 1011.2 |
| 20260903193515 | 24 | 306 | 8.0 | 19.3 | 0.00 | 0.41 | 0.00 | 57 | 1011.2 |
| 20260903193014 | 24 | 306 | 8.0 | 22.5 | 0.00 | 0.41 | 0.00 | 61 | 1011.3 |
| 20260903192513 | 24 | 296 | 6.4 | 22.5 | 0.00 | 0.41 | 0.00 | 58 | 1011.4 |
| 20260903192012 | 24 | 316 | 9.7 | 19.3 | 0.00 | 0.41 | 0.00 | 62 | 1011.4 |
| 20260903191514 | 24 | 298 | 11.3 | 19.3 | 0.00 | 0.41 | 0.00 | 62 | 1011.4 |
| 20260903191012 | 24 | 282 | 6.4 | 22.5 | 0.00 | 0.41 | 0.00 | 63 | 1011.4 |
| 20260903190512 | 24 | 303 | 14.5 | 22.5 | 0.00 | 0.41 | 0.00 | 61 | 1011.5 |
| 20260903190011 | 24 | 290 | 8.0 | 16.1 | 0.00 | 0.41 | 0.00 | 66 | 1011.5 |
| 20260903185510 | 24 | 290 | 8.0 | 20.9 | 0.00 | 0.41 | 0.00 | 67 | 1011.5 |
| 20260903185010 | 24 | 292 | 11.3 | 20.9 | 0.00 | 0.41 | 0.00 | 68 | 1011.2 |
| 20260903184509 | 23 | 311 | 11.3 | 22.5 | 0.00 | 0.41 | 0.00 | 66 | 1011.4 |
| 20260903184008 | 23 | 276 | 4.8 | 22.5 | 0.00 | 0.41 | 0.00 | 68 | 1011.5 |
| 20260903183510 | 23 | 301 | 12.9 | 20.9 | 0.00 | 0.41 | 0.00 | 66 | 1011.6 |
| 20260903183008 | 23 | 291 | 11.3 | 24.1 | 0.00 | 0.41 | 0.00 | 67 | 1011.5 |
| 20260903182511 | 23 | 313 | 12.9 | 20.9 | 0.00 | 0.41 | 0.00 | 69 | 1011.6 |
| 20260903182008 | 24 | 297 | 11.3 | 20.9 | 0.00 | 0.41 | 0.00 | 69 | 1011.6 |
| 20260903181505 | 23 | 275 | 11.3 | 24.1 | 0.00 | 0.41 | 0.00 | 67 | 1011.5 |
| 20260903181004 | 23 | 305 | 11.3 | 24.1 | 0.00 | 0.41 | 0.00 | 65 | 1011.5 |
| 20260903180503 | 23 | 291 | 9.7 | 25.7 | 0.00 | 0.41 | 0.00 | 69 | 1011.5 |
| 20260903180002 | 23 | 315 | 12.9 | 24.1 | 0.00 | 0.41 | 0.00 | 69 | 1011.5 |
| 20260903175501 | 22 | 294 | 12.9 | 20.9 | 0.00 | 0.41 | 0.00 | 71 | 1011.7 |
| 20260903175002 | 22 | 296 | 14.5 | 25.7 | 0.00 | 0.41 | 0.00 | 74 | 1011.7 |
| 20260903174502 | 23 | 294 | 17.7 | 25.7 | 0.00 | 0.41 | 0.00 | 74 | 1011.7 |
| 20260903174002 | 23 | 308 | 16.1 | 24.1 | 0.00 | 0.41 | 0.00 | 73 | 1011.6 |
| 20260903173600 | 23 | 290 | 8.0 | 17.7 | 0.00 | 0.41 | 0.00 | 76 | 1011.6 |
| 20260903173059 | 22 | 305 | 3.2 | 17.7 | 0.00 | 0.41 | 0.00 | 79 | 1011.7 |
| 20260903172558 | 22 | 294 | 4.8 | 14.5 | 0.00 | 0.41 | 0.00 | 78 | 1011.8 |
| 20260903172057 | 22 | 313 | 6.4 | 17.7 | 0.00 | 0.41 | 0.00 | 79 | 1011.7 |
| 20260903171558 | 22 | 275 | 4.8 | 17.7 | 0.00 | 0.41 | 0.00 | 79 | 1011.8 |
| 20260903171056 | 22 | 306 | 8.0 | 17.7 | 0.00 | 0.41 | 0.00 | 79 | 1011.9 |
| 20260903170556 | 22 | 327 | 4.8 | 14.5 | 0.00 | 0.41 | 0.00 | 81 | 1011.8 |
| 20260903170056 | 22 | 288 | 6.4 | 20.9 | 0.00 | 0.41 | 0.00 | 81 | 1011.9 |
| 20260903165555 | 22 | 306 | 9.7 | 20.9 | 0.00 | 0.71 | 0.00 | 81 | 1011.8 |
| 20260903165055 | 22 | 297 | 8.0 | 17.7 | 0.00 | 0.71 | 0.00 | 82 | 1011.9 |
| 20260903164557 | 22 | 302 | 6.4 | 19.3 | 0.00 | 0.71 | 0.00 | 81 | 1011.9 |
| 20260903164052 | 22 | 302 | 9.7 | 19.3 | 0.00 | 0.71 | 0.00 | 82 | 1012.0 |
| 20260903163551 | 21 | 283 | 6.4 | 17.7 | 0.00 | 0.71 | 0.00 | 83 | 1012.0 |
| 20260903163056 | 21 | 291 | 4.8 | 16.1 | 0.00 | 0.71 | 0.00 | 84 | 1012.2 |
| 20260903162550 | 21 | 311 | 8.0 | 16.1 | 0.00 | 0.71 | 0.00 | 84 | 1012.1 |
| 20260903162051 | 21 | 284 | 4.8 | 12.9 | 0.00 | 0.71 | 0.00 | 84 | 1012.1 |
| 20260903161549 | 21 | 284 | 0.0 | 9.7 | 0.00 | 0.71 | 0.00 | 84 | 1012.0 |
| 20260903161049 | 21 | 265 | 6.4 | 12.9 | 0.00 | 0.71 | 0.00 | 84 | 1012.1 |
| 20260903160549 | 21 | 305 | 3.2 | 17.7 | 0.00 | 0.71 | 0.00 | 84 | 1012.1 |
| 20260903160052 | 21 | 310 | 3.2 | 17.7 | 0.00 | 0.71 | 0.00 | 84 | 1012.2 |
| 20260903155548 | 21 | 302 | 3.2 | 9.7 | 0.00 | 0.94 | 0.00 | 85 | 1012.3 |
| 20260903155048 | 21 | 284 | 3.2 | 12.9 | 0.00 | 0.94 | 0.00 | 85 | 1012.3 |
| 20260903154604 | 21 | 305 | 4.8 | 14.5 | 0.00 | 0.94 | 0.00 | 85 | 1012.3 |
| 20260903154048 | 21 | 307 | 4.8 | 14.5 | 0.00 | 0.94 | 0.00 | 85 | 1012.3 |
| 20260903153550 | 21 | 275 | 4.8 | 14.5 | 0.00 | 0.94 | 0.00 | 84 | 1012.4 |
| 20260903153050 | 21 | 313 | 6.4 | 12.9 | 0.00 | 0.94 | 0.00 | 84 | 1012.4 |
| 20260903152547 | 21 | 269 | 1.6 | 12.9 | 0.00 | 0.94 | 0.00 | 84 | 1012.4 |
| 20260903152047 | 21 | 250 | 1.6 | 12.9 | 0.00 | 0.94 | 0.00 | 83 | 1012.3 |
| 20260903151546 | 21 | 249 | 1.6 | 11.3 | 0.00 | 0.94 | 0.00 | 83 | 1012.4 |
| 20260903151046 | 21 | 270 | 3.2 | 11.3 | 0.00 | 0.94 | 0.00 | 83 | 1012.3 |
| 20260903150546 | 21 | 217 | 1.6 | 8.0 | 0.00 | 0.94 | 0.00 | 82 | 1012.3 |
| 20260903150046 | 21 | 201 | 0.0 | 9.7 | 0.00 | 0.94 | 0.00 | 82 | 1012.4 |
| 20260903145548 | 21 | 198 | 1.6 | 11.3 | 0.00 | 0.94 | 0.00 | 82 | 1012.3 |
| 20260903145045 | 21 | 240 | 0.0 | 11.3 | 0.00 | 0.94 | 0.00 | 82 | 1012.3 |
| 20260903144544 | 21 | 234 | 1.6 | 11.3 | 0.00 | 0.94 | 0.00 | 83 | 1012.2 |
| 20260903144046 | 21 | 221 | 0.0 | 4.8 | 0.00 | 0.94 | 0.00 | 83 | 1012.3 |
| 20260903143543 | 21 | 263 | 0.0 | 4.8 | 0.00 | 0.94 | 0.00 | 83 | 1012.3 |
| 20260903143100 | 21 | 266 | 0.0 | 4.8 | 0.00 | 0.94 | 0.00 | 83 | 1012.2 |
| 20260903142542 | 21 | 107 | 1.6 | 6.4 | 0.00 | 0.94 | 0.00 | 85 | 1012.2 |
| 20260903142041 | 21 | 177 | 1.6 | 6.4 | 0.00 | 0.94 | 0.00 | 85 | 1012.1 |
| 20260903141555 | 20 | 261 | 0.0 | 11.3 | 0.00 | 0.94 | 0.00 | 87 | 1012.2 |
| 20260903141038 | 20 | 230 | 1.6 | 11.3 | 0.00 | 0.94 | 0.00 | 87 | 1012.2 |
| 20260903140537 | 20 | 164 | 1.6 | 11.3 | 0.00 | 0.94 | 0.00 | 88 | 1012.0 |
| 20260903140039 | 20 | 206 | 3.2 | 8.0 | 0.00 | 0.94 | 0.00 | 88 | 1012.0 |
| 20260903135536 | 20 | 262 | 1.6 | 11.3 | 0.00 | 0.94 | 0.00 | 88 | 1012.1 |
| 20260903135037 | 20 | 228 | 3.2 | 11.3 | 0.00 | 0.94 | 0.00 | 88 | 1012.1 |
| 20260903134537 | 20 | 244 | 1.6 | 6.4 | 0.00 | 0.94 | 0.00 | 88 | 1012.0 |
| 20260903134035 | 20 | 207 | 0.0 | 6.4 | 0.00 | 0.94 | 0.00 | 88 | 1012.0 |
| 20260903133534 | 20 | 289 | 0.0 | 4.8 | 0.00 | 0.94 | 0.00 | 89 | 1012.1 |
| 20260903133035 | 20 | 273 | 0.0 | 6.4 | 0.00 | 0.94 | 0.00 | 89 | 1012.1 |
| 20260903132533 | 19 | 271 | 1.6 | 6.4 | 0.00 | 0.94 | 0.00 | 89 | 1012.1 |
| 20260903132033 | 19 | 333 | 0.0 | 8.0 | 0.00 | 0.94 | 0.00 | 89 | 1012.1 |
| 20260903131534 | 19 | 226 | 3.2 | 8.0 | 0.00 | 0.94 | 0.00 | 90 | 1012.1 |
| 20260903131033 | 19 | 254 | 1.6 | 12.9 | 0.00 | 0.94 | 0.00 | 90 | 1012.1 |
| 20260903130533 | 19 | 211 | 1.6 | 12.9 | 0.00 | 0.94 | 0.00 | 90 | 1012.2 |
| 20260903130036 | 19 | 191 | 4.8 | 8.0 | 0.00 | 0.94 | 0.00 | 90 | 1012.1 |
| 20260903125532 | 18 | 222 | 3.2 | 8.0 | 0.00 | 0.94 | 0.00 | 90 | 1012.2 |
| 20260903125031 | 18 | 188 | 3.2 | 9.7 | 0.00 | 0.94 | 0.00 | 90 | 1012.1 |
| 20260903124531 | 18 | 180 | 4.8 | 11.3 | 0.00 | 0.94 | 0.00 | 90 | 1011.9 |
| 20260903124031 | 18 | 190 | 3.2 | 6.4 | 0.00 | 0.94 | 0.00 | 90 | 1012.1 |
| 20260903123531 | 18 | 179 | 1.6 | 8.0 | 0.00 | 0.94 | 0.00 | 90 | 1012.2 |
| 20260903123034 | 18 | 193 | 3.2 | 8.0 | 0.00 | 0.94 | 0.00 | 90 | 1012.2 |
| 20260903122530 | 18 | 182 | 1.6 | 12.9 | 0.00 | 0.94 | 0.00 | 90 | 1012.2 |
| 20260903122030 | 18 | 189 | 1.6 | 12.9 | 0.00 | 0.94 | 0.00 | 90 | 1012.3 |
| 20260903121530 | 18 | 220 | 3.2 | 11.3 | 0.00 | 0.94 | 0.00 | 90 | 1012.2 |
| 20260903121029 | 18 | 205 | 3.2 | 9.7 | 0.00 | 0.94 | 0.00 | 90 | 1012.2 |
| 20260903120529 | 18 | 202 | 3.2 | 11.3 | 0.00 | 0.94 | 0.00 | 90 | 1012.2 |
| 20260903120029 | 18 | 211 | 4.8 | 11.3 | 0.00 | 0.94 | 0.00 | 90 | 1012.0 |
| 20260903115528 | 18 | 196 | 1.6 | 9.7 | 0.00 | 0.94 | 0.00 | 90 | 1012.0 |
| 20260903115028 | 18 | 196 | 6.4 | 14.5 | 0.00 | 0.94 | 0.00 | 90 | 1011.9 |
| 20260903114528 | 18 | 220 | 8.0 | 14.5 | 0.00 | 0.94 | 0.00 | 90 | 1011.9 |
| 20260903114028 | 18 | 206 | 6.4 | 14.5 | 0.00 | 0.94 | 0.00 | 90 | 1011.8 |
| 20260903113528 | 18 | 204 | 6.4 | 14.5 | 0.00 | 0.94 | 0.00 | 90 | 1011.9 |
| 20260903113030 | 18 | 219 | 1.6 | 9.7 | 0.00 | 0.94 | 0.00 | 90 | 1011.9 |
| 20260903112527 | 18 | 215 | 1.6 | 16.1 | 0.00 | 0.94 | 0.00 | 90 | 1011.9 |
| 20260903112032 | 18 | 200 | 4.8 | 16.1 | 0.00 | 0.94 | 0.00 | 90 | 1011.9 |
| 20260903111535 | 18 | 175 | 3.2 | 16.1 | 0.00 | 0.94 | 0.00 | 89 | 1012.0 |
| 20260903111026 | 18 | 198 | 6.4 | 14.5 | 0.00 | 0.94 | 0.00 | 89 | 1012.0 |
| 20260903110526 | 18 | 194 | 3.2 | 16.1 | 0.00 | 0.94 | 0.00 | 89 | 1012.0 |
| 20260903110025 | 18 | 215 | 8.0 | 17.7 | 0.00 | 0.94 | 0.00 | 89 | 1011.9 |
| 20260903105525 | 18 | 216 | 6.4 | 25.7 | 0.00 | 0.94 | 0.00 | 89 | 1011.9 |
| 20260903105025 | 18 | 249 | 4.8 | 25.7 | 0.00 | 0.94 | 0.00 | 89 | 1011.9 |
| 20260903104525 | 18 | 208 | 6.4 | 16.1 | 0.00 | 0.94 | 0.00 | 89 | 1011.9 |
| 20260903104025 | 18 | 201 | 4.8 | 16.1 | 0.00 | 0.94 | 0.00 | 88 | 1012.0 |
| 20260903103524 | 18 | 207 | 4.8 | 14.5 | 0.00 | 0.94 | 0.00 | 88 | 1012.0 |
| 20260903103027 | 18 | 209 | 4.8 | 17.7 | 0.00 | 0.94 | 0.00 | 88 | 1012.1 |
| 20260903102524 | 18 | 223 | 4.8 | 17.7 | 0.00 | 0.94 | 0.00 | 88 | 1012.0 |
| 20260903102022 | 18 | 205 | 3.2 | 9.7 | 0.00 | 0.94 | 0.00 | 88 | 1012.1 |
| 20260903101535 | 18 | 160 | 1.6 | 14.5 | 0.00 | 0.94 | 0.00 | 88 | 1011.9 |
| 20260903101022 | 18 | 288 | 3.2 | 14.5 | 0.00 | 0.94 | 0.00 | 88 | 1011.9 |
| 20260903100522 | 18 | 236 | 0.0 | 12.9 | 0.00 | 0.94 | 0.00 | 88 | 1011.8 |
| 20260903100021 | 18 | 188 | 3.2 | 12.9 | 0.00 | 0.94 | 0.00 | 89 | 1011.8 |
| 20260903095521 | 18 | 225 | 3.2 | 16.1 | 0.00 | 0.94 | 0.00 | 89 | 1011.8 |
| 20260903095120 | 18 | 207 | 4.8 | 16.1 | 0.00 | 0.94 | 0.00 | 89 | 1011.8 |
| 20260903094519 | 18 | 208 | 3.2 | 11.3 | 0.00 | 0.94 | 0.00 | 90 | 1011.7 |
| 20260903094017 | 18 | 250 | 1.6 | 9.7 | 0.00 | 0.94 | 0.00 | 90 | 1011.7 |
| 20260903093516 | 18 | 40 | 3.2 | 9.7 | 0.00 | 0.94 | 0.00 | 90 | 1011.7 |
| 20260903093015 | 18 | 174 | 3.2 | 9.7 | 0.00 | 0.94 | 0.00 | 90 | 1011.6 |
| 20260903092517 | 18 | 175 | 1.6 | 9.7 | 0.00 | 0.94 | 0.00 | 90 | 1011.7 |
| 20260903092014 | 18 | 192 | 0.0 | 9.7 | 0.00 | 0.94 | 0.00 | 90 | 1011.6 |
| 20260903091515 | 18 | 149 | 1.6 | 11.3 | 0.00 | 0.94 | 0.00 | 90 | 1011.7 |
| 20260903091012 | 18 | 206 | 1.6 | 11.3 | 0.00 | 0.94 | 0.00 | 90 | 1011.6 |
| 20260903090512 | 18 | 192 | 4.8 | 11.3 | 0.00 | 0.94 | 0.00 | 90 | 1011.5 |
| 20260903090011 | 18 | 213 | 3.2 | 11.3 | 0.00 | 0.94 | 0.00 | 90 | 1011.6 |
| 20260903085508 | 18 | 46 | 0.0 | 8.0 | 0.00 | 0.94 | 0.00 | 90 | 1011.7 |
| 20260903085007 | 18 | 228 | 1.6 | 12.9 | 0.00 | 0.94 | 0.00 | 90 | 1011.7 |
| 20260903084506 | 18 | 258 | 0.0 | 12.9 | 0.00 | 0.94 | 0.00 | 91 | 1011.7 |
| 20260903084005 | 18 | 210 | 1.6 | 12.9 | 0.00 | 0.94 | 0.00 | 91 | 1011.7 |
| 20260903083504 | 18 | 209 | 4.8 | 12.9 | 0.00 | 0.94 | 0.00 | 91 | 1011.7 |
| 20260903083002 | 18 | 211 | 3.2 | 11.3 | 0.00 | 0.94 | 0.00 | 91 | 1011.7 |
| 20260903082500 | 18 | 247 | 4.8 | 11.3 | 0.00 | 0.94 | 0.00 | 91 | 1011.8 |
| 20260903082100 | 18 | 207 | 6.4 | 12.9 | 0.00 | 0.94 | 0.00 | 91 | 1011.8 |
| 20260903081600 | 18 | 238 | 6.4 | 17.7 | 0.00 | 0.94 | 0.00 | 91 | 1011.8 |
| 20260903081100 | 18 | 247 | 4.8 | 17.7 | 0.00 | 0.94 | 0.00 | 91 | 1011.8 |
| 20260903080553 | 18 | 155 | 3.2 | 11.3 | 0.00 | 0.94 | 0.00 | 91 | 1011.8 |
| 20260903080054 | 18 | 222 | 3.2 | 9.7 | 0.00 | 0.94 | 0.00 | 91 | 1011.9 |
| 20260903075558 | 18 | 197 | 3.2 | 9.7 | 0.00 | 0.94 | 0.00 | 92 | 1011.9 |
| 20260903075053 | 18 | 188 | 3.2 | 9.7 | 0.00 | 0.94 | 0.00 | 92 | 1011.9 |
| 20260903074553 | 18 | 308 | 3.2 | 11.3 | 0.00 | 0.94 | 0.00 | 92 | 1011.9 |
| 20260903074054 | 18 | 258 | 3.2 | 11.3 | 0.00 | 0.94 | 0.00 | 92 | 1011.9 |
| 20260903073553 | 18 | 196 | 1.6 | 8.0 | 0.00 | 0.94 | 0.00 | 92 | 1012.0 |
| 20260903073055 | 18 | 190 | 1.6 | 8.0 | 0.00 | 0.94 | 0.00 | 92 | 1012.0 |
| 20260903072552 | 18 | 36 | 1.6 | 8.0 | 0.00 | 0.94 | 0.00 | 92 | 1012.0 |
| 20260903072052 | 18 | 224 | 1.6 | 8.0 | 0.00 | 0.94 | 0.00 | 92 | 1012.0 |
| 20260903071552 | 18 | 317 | 0.0 | 11.3 | 0.00 | 0.94 | 0.00 | 92 | 1012.0 |
| 20260903071051 | 18 | 231 | 3.2 | 12.9 | 0.00 | 0.94 | 0.00 | 92 | 1012.0 |
| 20260903070550 | 18 | 193 | 0.0 | 12.9 | 0.00 | 0.94 | 0.00 | 91 | 1012.1 |
| 20260903070055 | 18 | 219 | 1.6 | 11.3 | 0.00 | 0.94 | 0.00 | 91 | 1012.0 |
| 20260903065551 | 18 | 194 | 3.2 | 11.3 | 0.00 | 0.94 | 0.00 | 92 | 1012.1 |
| 20260903065050 | 18 | 234 | 1.6 | 12.9 | 0.00 | 0.94 | 0.00 | 91 | 1012.1 |
| 20260903064550 | 18 | 187 | 1.6 | 14.5 | 0.00 | 0.94 | 0.00 | 92 | 1012.1 |
| 20260903064051 | 18 | 161 | 4.8 | 14.5 | 0.00 | 0.94 | 0.00 | 92 | 1012.0 |
| 20260903063549 | 18 | 213 | 3.2 | 14.5 | 0.00 | 0.94 | 0.00 | 92 | 1012.0 |
| 20260903063112 | 18 | 221 | 4.8 | 16.1 | 0.00 | 0.94 | 0.00 | 92 | 1012.0 |
| 20260903062546 | 18 | 207 | 8.0 | 16.1 | 0.00 | 0.94 | 0.00 | 92 | 1011.8 |
| 20260903062046 | 18 | 156 | 4.8 | 11.3 | 0.00 | 0.94 | 0.00 | 92 | 1011.9 |
| 20260903061546 | 18 | 206 | 1.6 | 11.3 | 0.00 | 0.94 | 0.00 | 92 | 1011.9 |
| 20260903061045 | 18 | 192 | 3.2 | 11.3 | 0.00 | 0.94 | 0.00 | 92 | 1011.9 |
| 20260903060545 | 18 | 227 | 3.2 | 11.3 | 0.00 | 0.94 | 0.00 | 92 | 1012.0 |
| 20260903060045 | 18 | 200 | 4.8 | 16.1 | 0.00 | 0.94 | 0.00 | 92 | 1011.9 |
| 20260903055545 | 18 | 10 | 3.2 | 19.3 | 0.00 | 0.94 | 0.00 | 92 | 1011.9 |
| 20260903055044 | 18 | 215 | 3.2 | 17.7 | 0.00 | 0.94 | 0.00 | 91 | 1011.8 |
| 20260903054545 | 18 | 142 | 1.6 | 12.9 | 0.00 | 0.94 | 0.00 | 92 | 1011.7 |
| 20260903054044 | 18 | 192 | 1.6 | 16.1 | 0.00 | 0.94 | 0.00 | 91 | 1011.7 |
| 20260903053546 | 18 | 209 | 4.8 | 22.5 | 0.00 | 0.94 | 0.00 | 92 | 1011.7 |
| 20260903053043 | 18 | 186 | 9.7 | 22.5 | 0.00 | 0.94 | 0.00 | 92 | 1011.8 |
| 20260903052543 | 18 | 200 | 6.4 | 20.9 | 0.00 | 0.94 | 0.00 | 92 | 1011.7 |
| 20260903052043 | 18 | 204 | 4.8 | 24.1 | 0.00 | 0.94 | 0.00 | 91 | 1011.6 |
| 20260903051545 | 18 | 202 | 6.4 | 24.1 | 0.00 | 0.94 | 0.00 | 91 | 1011.6 |
| 20260903051041 | 18 | 183 | 9.7 | 19.3 | 0.00 | 0.94 | 0.00 | 91 | 1011.5 |
| 20260903050540 | 18 | 198 | 6.4 | 22.5 | 0.00 | 0.94 | 0.00 | 91 | 1011.7 |
| 20260903050100 | 18 | 236 | 8.0 | 24.1 | 0.00 | 0.94 | 0.00 | 91 | 1011.9 |
| 20260903045540 | 18 | 252 | 8.0 | 20.9 | 0.00 | 0.94 | 0.00 | 91 | 1012.0 |
| 20260903045039 | 18 | 159 | 8.0 | 20.9 | 0.00 | 0.94 | 0.00 | 91 | 1012.1 |
| 20260903044539 | 18 | 192 | 9.7 | 22.5 | 0.00 | 0.94 | 0.00 | 92 | 1012.2 |
| 20260903044038 | 18 | 190 | 8.0 | 22.5 | 0.00 | 0.94 | 0.00 | 92 | 1012.2 |
| 20260903043539 | 17 | 218 | 6.4 | 22.5 | 0.00 | 0.94 | 0.00 | 92 | 1012.4 |
| 20260903043037 | 17 | 209 | 6.4 | 22.5 | 0.00 | 0.94 | 0.00 | 92 | 1012.4 |
| 20260903042537 | 17 | 203 | 8.0 | 22.5 | 0.03 | 0.94 | 0.00 | 92 | 1012.5 |
| 20260903042036 | 17 | 238 | 9.7 | 24.1 | 0.03 | 0.94 | 0.00 | 92 | 1012.7 |
| 20260903041535 | 17 | 234 | 9.7 | 24.1 | 0.03 | 0.94 | 0.00 | 92 | 1012.6 |
| 20260903041033 | 17 | 207 | 8.0 | 24.1 | 0.05 | 0.94 | 0.00 | 92 | 1012.5 |